QFA332 WSSS-YSSY

Flight info

Callsign QFA332
Flight time 7h 37m
Altitude 37000
Route IDBUD1B IDBUD T24 SURGA M635 ATMAP A576 CIN/N0472F390 A576 APOMA Y52 VELGI Y105 TARAL Y59 RIVET
Aircraft A333/H-SDE3GHIJ2J3J5M1RVWXY/LB2D1

Departure

Time 2026-05-04 03:28
Airport Singapore Changi Airport (WSSS)

Arrival

Time 2026-05-04 11:05
Airport Sydney Kingsford Smith International Airport (YSSY)
Time Latitude Longitude Altitude Speed Heading
2026-05-04 02:46 1.36317 103.99349 27 ft 0 kts 307°
2026-05-04 03:11 1.36310 103.99358 29 ft 2 kts 309°
2026-05-04 03:11 1.36302 103.99368 31 ft 1 kts 312°
2026-05-04 03:11 1.36294 103.99377 31 ft 2 kts 311°
2026-05-04 03:11 1.36285 103.99386 30 ft 2 kts 313°
2026-05-04 03:12 1.36281 103.99390 30 ft 0 kts 319°
2026-05-04 03:12 1.36282 103.99390 28 ft 0 kts 319°
2026-05-04 03:12 1.36281 103.99390 28 ft 2 kts 319°
2026-05-04 03:13 1.36272 103.99399 31 ft 1 kts 322°
2026-05-04 03:13 1.36262 103.99406 31 ft 1 kts 324°
2026-05-04 03:13 1.36252 103.99413 31 ft 1 kts 338°
2026-05-04 03:13 1.36253 103.99413 28 ft 0 kts 338°
2026-05-04 03:14 1.36250 103.99414 28 ft 2 kts 340°
2026-05-04 03:14 1.36231 103.99416 31 ft 3 kts 21°
2026-05-04 03:14 1.36212 103.99407 30 ft 1 kts 21°
2026-05-04 03:14 1.36213 103.99408 28 ft 0 kts 21°
2026-05-04 03:21 1.36317 103.99349 28 ft 0 kts 307°
2026-05-04 03:22 1.36502 103.99662 29 ft 217 kts 40°
2026-05-04 03:22 1.35924 103.99291 28 ft 384 kts 16°
2026-05-04 03:22 1.35724 103.99200 29 ft 19 kts 24°
2026-05-04 03:23 1.35846 103.99248 29 ft 19 kts 20°
2026-05-04 03:23 1.35930 103.99285 29 ft 20 kts 24°
2026-05-04 03:23 1.36103 103.99355 28 ft 21 kts 19°
2026-05-04 03:23 1.36229 103.99410 28 ft 19 kts 32°
2026-05-04 03:24 1.36323 103.99498 28 ft 19 kts 61°
2026-05-04 03:24 1.36327 103.99580 28 ft 18 kts 109°
2026-05-04 03:24 1.36276 103.99694 29 ft 18 kts 114°
2026-05-04 03:24 1.36246 103.99767 30 ft 0 kts 112°
2026-05-04 03:26 1.36227 103.99813 30 ft 8 kts 114°
2026-05-04 03:26 1.36200 103.99856 31 ft 7 kts 131°
2026-05-04 03:26 1.36150 103.99869 31 ft 10 kts 187°
2026-05-04 03:27 1.36085 103.99850 31 ft 10 kts 199°
2026-05-04 03:27 1.36011 103.99821 31 ft 19 kts 203°
2026-05-04 03:27 1.35684 103.99683 34 ft 82 kts 203°
2026-05-04 03:27 1.34986 103.99388 34 ft 134 kts 203°
2026-05-04 03:28 1.34001 103.98970 161 ft 167 kts 203°
2026-05-04 03:28 1.32924 103.98521 744 ft 168 kts 202°
2026-05-04 03:28 1.31826 103.98082 1358 ft 171 kts 201°
2026-05-04 03:28 1.30755 103.97640 2122 ft 161 kts 204°
2026-05-04 03:29 1.29769 103.97210 2810 ft 149 kts 204°
2026-05-04 03:29 1.28836 103.96804 3392 ft 144 kts 204°
2026-05-04 03:29 1.27920 103.96409 3854 ft 144 kts 204°
2026-05-04 03:29 1.26997 103.96015 4341 ft 144 kts 204°
2026-05-04 03:30 1.26070 103.95622 4794 ft 146 kts 203°
2026-05-04 03:30 1.25131 103.95226 5236 ft 147 kts 203°
2026-05-04 03:30 1.24198 103.94835 5586 ft 160 kts 201°
2026-05-04 03:30 1.23045 103.94545 5850 ft 181 kts 184°
2026-05-04 03:31 1.21736 103.94646 6140 ft 196 kts 169°
2026-05-04 03:31 1.20404 103.94952 6129 ft 196 kts 166°
2026-05-04 03:31 1.19088 103.95297 5966 ft 195 kts 166°
2026-05-04 03:31 1.17775 103.95640 5936 ft 196 kts 166°
2026-05-04 03:32 1.16455 103.95977 5936 ft 196 kts 166°
2026-05-04 03:32 1.15137 103.96309 5935 ft 196 kts 166°
2026-05-04 03:32 1.13816 103.96639 5962 ft 195 kts 166°
2026-05-04 03:32 1.12503 103.96965 6072 ft 195 kts 166°
2026-05-04 03:33 1.12007 103.97090 6047 ft 195 kts 165°
2026-05-04 03:33 1.10735 103.97560 5985 ft 196 kts 152°
2026-05-04 03:33 1.09586 103.98305 5988 ft 197 kts 144°
2026-05-04 03:33 1.08498 103.99131 5987 ft 197 kts 142°
2026-05-04 03:34 1.07420 103.99970 5985 ft 197 kts 142°
2026-05-04 03:34 1.06340 104.00810 5987 ft 196 kts 142°
2026-05-04 03:34 1.05261 104.01647 5986 ft 196 kts 142°
2026-05-04 03:34 1.04181 104.02482 5986 ft 197 kts 142°
2026-05-04 03:35 1.03130 104.03360 5984 ft 197 kts 132°
2026-05-04 03:35 1.02397 104.04505 5987 ft 196 kts 116°
2026-05-04 03:35 1.01843 104.05750 5988 ft 197 kts 113°
2026-05-04 03:35 1.01317 104.07019 6017 ft 197 kts 112°
2026-05-04 03:36 1.00794 104.08284 6016 ft 197 kts 112°
2026-05-04 03:36 1.00265 104.09550 6017 ft 197 kts 113°
2026-05-04 03:36 0.99735 104.10810 6017 ft 197 kts 113°
2026-05-04 03:36 0.99209 104.12058 6018 ft 197 kts 113°
2026-05-04 03:37 0.98672 104.13332 6085 ft 196 kts 113°
2026-05-04 03:37 0.98139 104.14598 6494 ft 199 kts 113°
2026-05-04 03:37 0.97603 104.15871 7148 ft 199 kts 113°
2026-05-04 03:37 0.97074 104.17127 7833 ft 199 kts 113°
2026-05-04 03:38 0.96529 104.18419 8520 ft 200 kts 113°
2026-05-04 03:38 0.95989 104.19702 9196 ft 201 kts 113°
2026-05-04 03:38 0.95440 104.21004 9761 ft 205 kts 113°
2026-05-04 03:38 0.94878 104.22294 9971 ft 205 kts 117°
2026-05-04 03:39 0.94185 104.23540 10000 ft 206 kts 121°
2026-05-04 03:39 0.93433 104.24762 9998 ft 206 kts 122°
2026-05-04 03:39 0.92674 104.25973 10148 ft 205 kts 122°
2026-05-04 03:39 0.91912 104.27190 10606 ft 208 kts 122°
2026-05-04 03:40 0.91146 104.28415 11229 ft 207 kts 122°
2026-05-04 03:40 0.90381 104.29641 11858 ft 208 kts 122°
2026-05-04 03:40 0.89615 104.30870 12468 ft 209 kts 122°
2026-05-04 03:40 0.88841 104.32113 13042 ft 212 kts 122°
2026-05-04 03:41 0.88060 104.33367 13614 ft 214 kts 122°
2026-05-04 03:41 0.87269 104.34637 14154 ft 216 kts 121°
2026-05-04 03:41 0.86472 104.35916 14693 ft 217 kts 121°
2026-05-04 03:41 0.85673 104.37200 15239 ft 219 kts 121°
2026-05-04 03:42 0.84864 104.38499 15727 ft 221 kts 121°
2026-05-04 03:42 0.84047 104.39813 15934 ft 223 kts 121°
2026-05-04 03:42 0.83224 104.41134 15958 ft 225 kts 121°
2026-05-04 03:42 0.82385 104.42454 15960 ft 225 kts 122°
2026-05-04 03:43 0.81502 104.43740 16160 ft 225 kts 123°
2026-05-04 03:43 0.80596 104.45027 16641 ft 227 kts 123°
2026-05-04 03:43 0.79683 104.46316 17219 ft 228 kts 123°
2026-05-04 03:43 0.78763 104.47614 17766 ft 230 kts 123°
2026-05-04 03:44 0.77834 104.48924 18285 ft 232 kts 123°
2026-05-04 03:44 0.76892 104.50251 18720 ft 236 kts 123°
2026-05-04 03:44 0.75936 104.51598 19142 ft 240 kts 123°
2026-05-04 03:44 0.74963 104.52969 19569 ft 244 kts 123°
2026-05-04 03:45 0.73969 104.54356 20009 ft 248 kts 125°
2026-05-04 03:45 0.72831 104.55667 20429 ft 253 kts 134°
2026-05-04 03:45 0.71428 104.56765 20855 ft 259 kts 146°
2026-05-04 03:45 0.69786 104.57554 21281 ft 265 kts 158°
2026-05-04 03:46 0.68013 104.58124 21731 ft 270 kts 161°
2026-05-04 03:46 0.66202 104.58649 22182 ft 273 kts 161°
2026-05-04 03:46 0.64369 104.59178 22644 ft 276 kts 161°
2026-05-04 03:46 0.62517 104.59719 23103 ft 279 kts 161°
2026-05-04 03:47 0.60646 104.60269 23542 ft 282 kts 161°
2026-05-04 03:47 0.58758 104.60827 23931 ft 284 kts 161°
2026-05-04 03:47 0.56854 104.61392 24316 ft 287 kts 161°
2026-05-04 03:47 0.54937 104.61961 24701 ft 289 kts 161°
2026-05-04 03:48 0.53004 104.62535 25094 ft 291 kts 161°
2026-05-04 03:48 0.51081 104.63173 25472 ft 292 kts 156°
2026-05-04 03:48 0.49245 104.64041 25845 ft 293 kts 148°
2026-05-04 03:48 0.47558 104.65182 26215 ft 293 kts 139°
2026-05-04 03:49 0.46070 104.66576 26587 ft 294 kts 130°
2026-05-04 03:49 0.44813 104.68197 26959 ft 296 kts 122°
2026-05-04 03:49 0.43743 104.69954 27342 ft 297 kts 119°
2026-05-04 03:49 0.42711 104.71752 27711 ft 299 kts 118°
2026-05-04 03:50 0.41676 104.73565 28078 ft 302 kts 119°
2026-05-04 03:50 0.40631 104.75390 28440 ft 304 kts 119°
2026-05-04 03:50 0.39574 104.77228 28796 ft 306 kts 119°
2026-05-04 03:50 0.38508 104.79078 29152 ft 308 kts 119°
2026-05-04 03:51 0.37435 104.80936 29488 ft 310 kts 119°
2026-05-04 03:51 0.36352 104.82812 29837 ft 312 kts 119°
2026-05-04 03:51 0.35262 104.84699 30148 ft 315 kts 119°
2026-05-04 03:51 0.34164 104.86597 30421 ft 317 kts 119°
2026-05-04 03:52 0.33072 104.88487 30706 ft 319 kts 119°
2026-05-04 03:52 0.31945 104.90437 30972 ft 321 kts 119°
2026-05-04 03:52 0.30826 104.92373 31235 ft 323 kts 119°
2026-05-04 03:52 0.29700 104.94321 31536 ft 324 kts 119°
2026-05-04 03:53 0.28585 104.96250 31829 ft 325 kts 119°
2026-05-04 03:53 0.27436 104.98236 32110 ft 327 kts 119°
2026-05-04 03:53 0.26298 105.00206 32377 ft 328 kts 119°
2026-05-04 03:53 0.25167 105.02162 32629 ft 330 kts 119°
2026-05-04 03:54 0.24019 105.04148 32887 ft 331 kts 119°
2026-05-04 03:54 0.22864 105.06144 33143 ft 333 kts 120°
2026-05-04 03:54 0.21703 105.08151 33387 ft 334 kts 120°
2026-05-04 03:54 0.20537 105.10167 33630 ft 336 kts 120°
2026-05-04 03:55 0.19367 105.12189 33869 ft 337 kts 120°
2026-05-04 03:55 0.18193 105.14220 34072 ft 339 kts 120°
2026-05-04 03:55 0.17011 105.16263 34255 ft 340 kts 119°
2026-05-04 03:55 0.15823 105.18318 34436 ft 342 kts 119°
2026-05-04 03:56 0.14630 105.20381 34617 ft 344 kts 119°
2026-05-04 03:56 0.13431 105.22454 34800 ft 346 kts 119°
2026-05-04 03:56 0.12226 105.24539 34968 ft 347 kts 119°
2026-05-04 03:56 0.11015 105.26632 35141 ft 349 kts 119°
2026-05-04 03:57 0.09800 105.28734 35308 ft 350 kts 119°
2026-05-04 03:57 0.08578 105.30846 35491 ft 351 kts 119°
2026-05-04 03:57 0.07355 105.32961 35679 ft 352 kts 119°
2026-05-04 03:57 0.06126 105.35087 35839 ft 354 kts 119°
2026-05-04 03:58 0.03651 105.39367 36149 ft 357 kts 119°
2026-05-04 03:58 0.02408 105.41517 36309 ft 359 kts 119°
2026-05-04 03:58 0.01156 105.43681 36464 ft 360 kts 119°
2026-05-04 03:59 -0.00099 105.45851 36611 ft 361 kts 119°
2026-05-04 03:59 -0.01356 105.48025 36770 ft 362 kts 119°
2026-05-04 03:59 -0.02619 105.50208 36904 ft 364 kts 119°
2026-05-04 03:59 -0.03888 105.52402 36937 ft 365 kts 119°
2026-05-04 04:00 -0.06425 105.56791 36945 ft 364 kts 119°
2026-05-04 04:00 -0.08959 105.61172 36927 ft 364 kts 119°
2026-05-04 04:01 -0.11493 105.65552 36926 ft 364 kts 119°
2026-05-04 04:01 -0.14024 105.69929 36926 ft 364 kts 119°
2026-05-04 04:02 -0.16553 105.74304 36924 ft 363 kts 119°
2026-05-04 04:02 -0.19081 105.78674 36933 ft 363 kts 119°
2026-05-04 04:03 -0.21594 105.83021 36928 ft 363 kts 119°
2026-05-04 04:03 -0.24137 105.87419 36942 ft 363 kts 119°
2026-05-04 04:04 -0.26665 105.91791 36941 ft 363 kts 119°
2026-05-04 04:04 -0.29192 105.96160 36925 ft 363 kts 119°
2026-05-04 04:05 -0.31720 106.00531 36938 ft 363 kts 119°
2026-05-04 04:05 -0.34236 106.04883 36919 ft 361 kts 119°
2026-05-04 04:06 -0.36727 106.09190 36922 ft 360 kts 119°
2026-05-04 04:06 -0.39233 106.13524 36939 ft 360 kts 119°
2026-05-04 04:07 -0.41737 106.17855 36937 ft 360 kts 119°
2026-05-04 04:07 -0.44243 106.22189 36919 ft 360 kts 119°
2026-05-04 04:08 -0.46748 106.26522 36919 ft 360 kts 119°
2026-05-04 04:08 -0.49251 106.30850 36936 ft 360 kts 119°
2026-05-04 04:09 -0.51758 106.35186 36924 ft 360 kts 119°
2026-05-04 04:09 -0.53837 106.38783 36934 ft 359 kts 119°
2026-05-04 04:10 -0.56334 106.43101 36919 ft 359 kts 119°
2026-05-04 04:10 -0.58830 106.47419 36919 ft 359 kts 119°
2026-05-04 04:11 -0.61410 106.51683 36932 ft 359 kts 124°
2026-05-04 04:11 -0.64559 106.55561 36920 ft 360 kts 129°
2026-05-04 04:12 -0.67862 106.59312 36918 ft 360 kts 130°
2026-05-04 04:12 -0.71196 106.63042 36924 ft 360 kts 130°
2026-05-04 04:13 -0.74526 106.66776 36932 ft 360 kts 130°
2026-05-04 04:13 -0.77844 106.70510 36917 ft 359 kts 130°
2026-05-04 04:14 -0.81156 106.74244 36917 ft 358 kts 130°
2026-05-04 04:14 -0.84458 106.77967 36935 ft 358 kts 130°
2026-05-04 04:15 -0.87759 106.81690 36918 ft 358 kts 130°
2026-05-04 04:15 -0.91061 106.85412 36923 ft 358 kts 130°
2026-05-04 04:16 -0.94361 106.89132 36935 ft 358 kts 130°
2026-05-04 04:16 -0.97662 106.92854 36935 ft 358 kts 130°
2026-05-04 04:17 -1.00962 106.96574 36918 ft 358 kts 130°
2026-05-04 04:17 -1.04261 107.00295 36923 ft 358 kts 130°
2026-05-04 04:18 -1.07562 107.04017 36933 ft 358 kts 130°
2026-05-04 04:18 -1.10859 107.07734 36934 ft 357 kts 130°
2026-05-04 04:19 -1.14156 107.11453 36915 ft 358 kts 130°
2026-05-04 04:19 -1.17460 107.15177 36917 ft 358 kts 130°
2026-05-04 04:20 -1.20741 107.18878 36915 ft 358 kts 130°
2026-05-04 04:20 -1.24042 107.22601 36932 ft 358 kts 130°
2026-05-04 04:21 -1.27343 107.26324 36918 ft 358 kts 130°
2026-05-04 04:21 -1.30644 107.30047 36914 ft 358 kts 130°
2026-05-04 04:22 -1.33946 107.33771 36912 ft 358 kts 130°
2026-05-04 04:22 -1.37240 107.37497 36929 ft 358 kts 130°
2026-05-04 04:23 -1.40497 107.41253 36915 ft 357 kts 129°
2026-05-04 04:23 -1.43735 107.45015 36918 ft 357 kts 129°
2026-05-04 04:24 -1.46961 107.48762 36912 ft 357 kts 129°
2026-05-04 04:24 -1.50202 107.52519 36911 ft 357 kts 129°
2026-05-04 04:25 -1.53440 107.56271 36916 ft 357 kts 129°
2026-05-04 04:25 -1.56679 107.60024 36930 ft 357 kts 129°
2026-05-04 04:26 -1.59919 107.63778 36916 ft 357 kts 129°
2026-05-04 04:26 -1.63156 107.67530 36909 ft 356 kts 129°
2026-05-04 04:27 -1.66381 107.71267 36915 ft 356 kts 129°
2026-05-04 04:27 -1.69618 107.75019 36932 ft 356 kts 129°
2026-05-04 04:28 -1.72824 107.78735 36929 ft 355 kts 129°
2026-05-04 04:28 -1.76042 107.82464 36929 ft 354 kts 129°
2026-05-04 04:29 -1.79261 107.86197 36910 ft 354 kts 129°
2026-05-04 04:29 -1.82477 107.89925 36907 ft 354 kts 129°
2026-05-04 04:30 -1.85700 107.93661 36928 ft 355 kts 129°
2026-05-04 04:30 -1.88926 107.97402 36926 ft 355 kts 129°
2026-05-04 04:31 -1.92152 108.01142 36907 ft 355 kts 129°
2026-05-04 04:31 -1.95378 108.04883 36925 ft 355 kts 129°
2026-05-04 04:32 -1.98602 108.08622 36926 ft 355 kts 129°
2026-05-04 04:32 -2.01830 108.12365 36909 ft 355 kts 129°
2026-05-04 04:33 -2.05053 108.16104 36907 ft 355 kts 129°
2026-05-04 04:33 -2.08278 108.19842 36924 ft 355 kts 129°
2026-05-04 04:34 -2.11502 108.23578 36907 ft 355 kts 129°
2026-05-04 04:34 -2.14727 108.27316 36908 ft 355 kts 129°
2026-05-04 04:35 -2.17953 108.31054 36905 ft 355 kts 129°
2026-05-04 04:35 -2.21166 108.34780 36903 ft 357 kts 129°
2026-05-04 04:36 -2.24417 108.38549 36921 ft 358 kts 129°
2026-05-04 04:36 -2.27670 108.42320 36923 ft 358 kts 129°
2026-05-04 04:37 -2.34159 108.49843 36915 ft 356 kts 130°
2026-05-04 04:38 -2.37393 108.53594 36912 ft 356 kts 130°
2026-05-04 04:38 -2.40631 108.57349 36915 ft 356 kts 130°
2026-05-04 04:39 -2.43854 108.61087 36910 ft 356 kts 130°
2026-05-04 04:39 -2.47088 108.64839 36914 ft 356 kts 130°
2026-05-04 04:40 -2.50326 108.68591 36913 ft 356 kts 130°
2026-05-04 04:40 -2.53566 108.72335 36911 ft 356 kts 130°
2026-05-04 04:41 -2.56799 108.76070 36909 ft 354 kts 130°
2026-05-04 04:41 -2.60020 108.79793 36910 ft 354 kts 130°
2026-05-04 04:42 -2.63244 108.83520 36910 ft 355 kts 130°
2026-05-04 04:42 -2.66473 108.87252 36910 ft 355 kts 130°
2026-05-04 04:43 -2.69699 108.90982 36909 ft 354 kts 130°
2026-05-04 04:43 -2.72924 108.94711 36907 ft 354 kts 130°
2026-05-04 04:44 -2.76147 108.98439 36912 ft 354 kts 130°
2026-05-04 04:44 -2.79352 109.02145 36910 ft 354 kts 130°
2026-05-04 04:45 -2.82577 109.05876 36912 ft 354 kts 130°
2026-05-04 04:47 -2.93862 109.18950 36907 ft 356 kts 130°
2026-05-04 04:47 -2.97092 109.22704 36910 ft 356 kts 130°
2026-05-04 04:48 -3.00317 109.26452 36906 ft 355 kts 130°
2026-05-04 04:49 -3.08381 109.35822 36905 ft 355 kts 130°
2026-05-04 04:49 -3.11608 109.39572 36903 ft 355 kts 130°
2026-05-04 04:50 -3.14831 109.43319 36902 ft 355 kts 130°
2026-05-04 04:50 -3.18058 109.47070 36902 ft 355 kts 130°
2026-05-04 04:51 -3.21282 109.50818 36903 ft 355 kts 130°
2026-05-04 04:51 -3.24505 109.54565 36902 ft 355 kts 130°
2026-05-04 04:52 -3.27730 109.58315 36902 ft 355 kts 130°
2026-05-04 04:52 -3.30954 109.62065 36902 ft 355 kts 130°
2026-05-04 04:53 -3.34181 109.65818 36902 ft 355 kts 130°
2026-05-04 04:53 -3.37400 109.69562 36901 ft 355 kts 130°
2026-05-04 04:54 -3.40618 109.73306 36902 ft 355 kts 130°
2026-05-04 04:54 -3.43840 109.77055 36902 ft 355 kts 130°
2026-05-04 04:55 -3.47062 109.80804 36899 ft 355 kts 130°
2026-05-04 04:55 -3.50286 109.84555 36899 ft 356 kts 130°
2026-05-04 04:56 -3.53511 109.88309 36896 ft 356 kts 130°
2026-05-04 04:56 -3.56740 109.92067 36896 ft 356 kts 130°
2026-05-04 04:57 -3.59963 109.95820 36898 ft 355 kts 130°
2026-05-04 04:57 -3.63178 109.99563 36899 ft 354 kts 130°
2026-05-04 04:58 -3.65848 110.02672 36898 ft 354 kts 130°
2026-05-04 04:58 -3.69060 110.06412 36897 ft 354 kts 130°
2026-05-04 04:59 -3.72270 110.10151 36898 ft 354 kts 130°
2026-05-04 04:59 -3.75480 110.13890 36899 ft 354 kts 130°
2026-05-04 05:00 -3.78694 110.17635 36902 ft 355 kts 130°
2026-05-04 05:01 -3.83518 110.23255 36904 ft 355 kts 130°
2026-05-04 05:01 -3.86735 110.27003 36902 ft 355 kts 130°
2026-05-04 05:02 -3.89951 110.30751 36904 ft 355 kts 130°
2026-05-04 05:02 -3.93167 110.34501 36904 ft 355 kts 130°
2026-05-04 05:03 -3.96378 110.38257 36902 ft 355 kts 129°
2026-05-04 05:04 -4.02463 110.46065 36899 ft 356 kts 127°
2026-05-04 05:04 -4.05473 110.50001 36901 ft 356 kts 127°
2026-05-04 05:06 -4.17587 110.65705 36903 ft 356 kts 127°
2026-05-04 05:07 -4.20615 110.69629 36900 ft 356 kts 127°
2026-05-04 05:07 -4.23644 110.73555 36901 ft 356 kts 127°
2026-05-04 05:09 -4.37200 110.91132 36899 ft 353 kts 127°
2026-05-04 05:10 -4.40204 110.95029 36904 ft 353 kts 127°
2026-05-04 05:10 -4.43209 110.98928 36899 ft 353 kts 127°
2026-05-04 05:11 -4.46213 111.02826 36898 ft 353 kts 127°
2026-05-04 05:11 -4.49217 111.06725 36896 ft 353 kts 127°
2026-05-04 05:12 -4.52221 111.10623 36902 ft 354 kts 127°
2026-05-04 05:12 -4.55285 111.14603 36905 ft 367 kts 127°
2026-05-04 05:13 -4.58456 111.18721 36904 ft 380 kts 127°
2026-05-04 05:13 -4.61742 111.22988 36903 ft 393 kts 127°
2026-05-04 05:14 -4.65122 111.27355 36900 ft 406 kts 127°
2026-05-04 05:14 -4.68641 111.31892 36905 ft 419 kts 127°
2026-05-04 05:15 -4.72271 111.36573 36899 ft 431 kts 127°
2026-05-04 05:15 -4.76004 111.41389 36899 ft 443 kts 127°
2026-05-04 05:16 -4.79825 111.46322 36899 ft 455 kts 127°
2026-05-04 05:16 -4.83750 111.51390 36900 ft 466 kts 127°
2026-05-04 05:17 -4.87770 111.56581 36895 ft 475 kts 127°
2026-05-04 05:17 -4.91830 111.61824 36894 ft 476 kts 127°
2026-05-04 05:18 -4.95886 111.67063 36896 ft 475 kts 126°
2026-05-04 05:18 -4.99952 111.72318 36896 ft 477 kts 127°
2026-05-04 05:19 -5.04024 111.77582 36898 ft 478 kts 126°
2026-05-04 05:19 -5.08103 111.82857 36896 ft 479 kts 126°
2026-05-04 05:20 -5.12186 111.88136 36895 ft 479 kts 126°
2026-05-04 05:20 -5.16269 111.93418 36894 ft 479 kts 126°
2026-05-04 05:21 -5.20344 111.98691 36895 ft 479 kts 126°
2026-05-04 05:21 -5.24426 112.03973 36896 ft 479 kts 126°
2026-05-04 05:22 -5.28478 112.09219 36893 ft 479 kts 126°
2026-05-04 05:22 -5.32563 112.14508 36897 ft 480 kts 127°
2026-05-04 05:23 -5.36669 112.19826 36890 ft 484 kts 126°
2026-05-04 05:23 -5.40794 112.25170 36887 ft 484 kts 126°
2026-05-04 05:24 -5.44921 112.30517 36890 ft 484 kts 126°
2026-05-04 05:24 -5.49044 112.35861 36887 ft 484 kts 126°
2026-05-04 05:25 -5.53167 112.41205 36890 ft 484 kts 126°
2026-05-04 05:25 -5.57288 112.46549 36891 ft 485 kts 126°
2026-05-04 05:26 -5.61424 112.51915 36889 ft 486 kts 126°
2026-05-04 05:26 -5.65560 112.57280 36890 ft 483 kts 126°
2026-05-04 05:28 -5.81890 112.78480 36886 ft 479 kts 127°
2026-05-04 05:29 -5.85964 112.83774 36886 ft 480 kts 127°
2026-05-04 05:29 -5.90046 112.89078 36884 ft 480 kts 126°
2026-05-04 05:31 -6.06412 113.10359 36883 ft 483 kts 127°
2026-05-04 05:32 -6.10514 113.15697 36885 ft 483 kts 127°
2026-05-04 05:33 -6.16671 113.23711 36882 ft 483 kts 127°
2026-05-04 05:33 -6.20775 113.29057 36881 ft 483 kts 127°
2026-05-04 05:34 -6.25096 113.34207 36881 ft 483 kts 136°
2026-05-04 05:34 -6.30311 113.38457 36882 ft 483 kts 143°
2026-05-04 05:35 -6.35773 113.42432 36881 ft 486 kts 144°
2026-05-04 05:35 -6.41288 113.46365 36879 ft 485 kts 144°
2026-05-04 05:36 -6.46785 113.50304 36879 ft 485 kts 144°
2026-05-04 05:36 -6.52279 113.54265 36879 ft 486 kts 144°
2026-05-04 05:37 -6.57773 113.58235 36878 ft 486 kts 144°
2026-05-04 05:37 -6.63252 113.62195 36878 ft 485 kts 144°
2026-05-04 05:38 -6.71479 113.68142 36879 ft 485 kts 144°
2026-05-04 05:38 -6.76948 113.72097 36880 ft 484 kts 144°
2026-05-04 05:39 -6.85168 113.78042 36880 ft 485 kts 144°
2026-05-04 05:40 -6.93375 113.83982 36881 ft 485 kts 144°
2026-05-04 05:40 -6.98817 113.87921 36882 ft 485 kts 144°
2026-05-04 05:41 -7.04331 113.91917 36881 ft 485 kts 144°
2026-05-04 05:41 -7.09771 113.95861 36880 ft 485 kts 144°
2026-05-04 05:42 -7.15244 113.99831 36881 ft 485 kts 144°
2026-05-04 05:42 -7.20714 114.03800 36881 ft 484 kts 144°
2026-05-04 05:43 -7.25289 114.07120 36884 ft 484 kts 144°
2026-05-04 05:45 -7.47200 114.23034 36878 ft 486 kts 144°
2026-05-04 05:47 -7.69088 114.38952 36880 ft 485 kts 145°
2026-05-04 05:47 -7.74555 114.42931 36883 ft 484 kts 145°
2026-05-04 05:48 -7.80010 114.46903 36881 ft 483 kts 145°
2026-05-04 05:48 -7.85464 114.50874 36881 ft 484 kts 144°
2026-05-04 05:49 -7.90918 114.54847 36877 ft 483 kts 145°
2026-05-04 05:49 -7.96366 114.58817 36879 ft 483 kts 145°
2026-05-04 05:51 -8.18074 114.74651 36887 ft 482 kts 145°
2026-05-04 05:52 -8.23511 114.78620 36889 ft 482 kts 145°
2026-05-04 05:52 -8.28946 114.82589 36890 ft 482 kts 146°
2026-05-04 05:54 -8.50749 114.98525 36896 ft 484 kts 145°
2026-05-04 05:55 -8.56201 115.02514 36898 ft 484 kts 146°
2026-05-04 05:55 -8.61653 115.06503 36904 ft 484 kts 146°
2026-05-04 05:56 -8.67100 115.10491 36910 ft 483 kts 146°
2026-05-04 05:56 -8.72547 115.14480 36912 ft 483 kts 145°
2026-05-04 05:57 -8.77716 115.18830 36911 ft 484 kts 140°
2026-05-04 05:57 -8.82688 115.23433 36911 ft 485 kts 138°
2026-05-04 05:58 -8.87618 115.28080 36903 ft 484 kts 138°
2026-05-04 05:58 -8.92549 115.32730 36886 ft 484 kts 138°
2026-05-04 05:59 -8.97478 115.37368 36886 ft 485 kts 139°
2026-05-04 05:59 -9.02435 115.42028 36887 ft 486 kts 139°
2026-05-04 06:00 -9.07388 115.46683 36892 ft 486 kts 139°
2026-05-04 06:00 -9.12337 115.51339 36893 ft 486 kts 139°
2026-05-04 06:01 -9.17253 115.55964 36889 ft 486 kts 138°
2026-05-04 06:03 -9.37046 115.74609 36888 ft 486 kts 139°
2026-05-04 06:05 -9.59326 115.95633 36891 ft 488 kts 139°
2026-05-04 06:06 -9.64288 116.00320 36892 ft 487 kts 139°
2026-05-04 06:06 -9.69245 116.05005 36892 ft 487 kts 139°
2026-05-04 06:07 -9.74192 116.09682 36892 ft 487 kts 139°
2026-05-04 06:07 -9.79145 116.14367 36894 ft 487 kts 139°
2026-05-04 06:08 -9.84104 116.19060 36896 ft 487 kts 139°
2026-05-04 06:08 -9.89057 116.23749 36894 ft 487 kts 139°
2026-05-04 06:09 -9.94009 116.28439 36893 ft 487 kts 139°
2026-05-04 06:11 -10.13778 116.47183 36895 ft 486 kts 139°
2026-05-04 06:13 -10.33555 116.65968 36895 ft 486 kts 139°
2026-05-04 06:14 -10.50831 116.82405 36897 ft 487 kts 140°
2026-05-04 06:15 -10.55772 116.87111 36900 ft 487 kts 140°
2026-05-04 06:15 -10.60706 116.91813 36897 ft 486 kts 140°
2026-05-04 06:16 -10.65640 116.96516 36895 ft 486 kts 140°
2026-05-04 06:16 -10.70567 117.01214 36895 ft 486 kts 140°
2026-05-04 06:17 -10.75497 117.05919 36895 ft 486 kts 140°
2026-05-04 06:17 -10.80435 117.10633 36900 ft 487 kts 140°
2026-05-04 06:18 -10.85370 117.15346 36900 ft 487 kts 140°
2026-05-04 06:20 -11.05104 117.34217 36903 ft 486 kts 140°
2026-05-04 06:21 -11.17438 117.46029 36903 ft 487 kts 140°
2026-05-04 06:22 -11.22371 117.50759 36902 ft 486 kts 140°
2026-05-04 06:25 -11.56853 117.83877 36903 ft 488 kts 140°
2026-05-04 06:26 -11.61791 117.88630 36903 ft 488 kts 140°
2026-05-04 06:26 -11.66731 117.93386 36905 ft 488 kts 140°
2026-05-04 06:27 -11.78293 118.04529 36911 ft 489 kts 140°
2026-05-04 06:28 -11.83206 118.09269 36908 ft 489 kts 140°
2026-05-04 06:28 -11.88152 118.14041 36907 ft 489 kts 140°
2026-05-04 06:29 -11.93097 118.18816 36909 ft 489 kts 140°
2026-05-04 06:29 -11.98042 118.23594 36910 ft 491 kts 140°
2026-05-04 06:30 -12.03006 118.28392 36908 ft 491 kts 140°
2026-05-04 06:30 -12.07976 118.33198 36911 ft 492 kts 140°
2026-05-04 06:31 -12.12942 118.38004 36913 ft 492 kts 140°
2026-05-04 06:31 -12.17903 118.42808 36914 ft 491 kts 140°
2026-05-04 06:33 -12.37766 118.62064 36914 ft 493 kts 140°
2026-05-04 06:34 -12.42734 118.66888 36913 ft 492 kts 141°
2026-05-04 06:34 -12.47702 118.71714 36911 ft 492 kts 141°
2026-05-04 06:36 -12.67596 118.91065 36915 ft 494 kts 141°
2026-05-04 06:37 -12.72552 118.95894 36910 ft 494 kts 141°
2026-05-04 06:37 -12.77527 119.00743 36912 ft 493 kts 141°
2026-05-04 06:38 -12.82495 119.05588 36914 ft 493 kts 141°
2026-05-04 06:40 -13.02371 119.25000 36912 ft 493 kts 141°
2026-05-04 06:40 -13.07302 119.29823 36912 ft 493 kts 141°
2026-05-04 06:41 -13.12266 119.34680 36915 ft 494 kts 141°
2026-05-04 06:41 -13.17237 119.39547 36914 ft 494 kts 141°
2026-05-04 06:42 -13.22209 119.44419 36918 ft 494 kts 141°
2026-05-04 06:44 -13.42083 119.63921 36914 ft 494 kts 141°
2026-05-04 06:44 -13.47053 119.68805 36914 ft 494 kts 141°
2026-05-04 06:45 -13.52018 119.73687 36920 ft 494 kts 141°
2026-05-04 06:45 -13.56982 119.78571 36920 ft 494 kts 141°
2026-05-04 06:46 -13.61949 119.83461 36919 ft 494 kts 141°
2026-05-04 06:46 -13.66910 119.88349 36927 ft 494 kts 141°
2026-05-04 06:48 -13.86789 120.07962 36904 ft 495 kts 141°
2026-05-04 06:50 -14.06635 120.27591 36922 ft 496 kts 141°
2026-05-04 06:51 -14.11608 120.32518 36918 ft 496 kts 141°
2026-05-04 06:51 -14.16584 120.37451 36919 ft 496 kts 141°
2026-05-04 06:52 -14.21562 120.42389 36923 ft 496 kts 141°
2026-05-04 06:52 -14.26539 120.47328 36919 ft 497 kts 141°
2026-05-04 06:53 -14.31520 120.52276 36921 ft 497 kts 141°
2026-05-04 06:53 -14.36501 120.57227 36921 ft 497 kts 141°
2026-05-04 06:54 -14.41481 120.62179 36923 ft 497 kts 141°
2026-05-04 06:54 -14.46459 120.67133 36923 ft 497 kts 141°
2026-05-04 06:55 -14.51440 120.72093 36922 ft 498 kts 141°
2026-05-04 06:55 -14.56430 120.77065 36923 ft 499 kts 141°
2026-05-04 06:57 -14.76383 120.96981 36927 ft 499 kts 141°
2026-05-04 06:58 -14.81373 121.01970 36925 ft 499 kts 141°
2026-05-04 06:58 -14.86366 121.06966 36925 ft 499 kts 141°
2026-05-04 06:59 -14.91352 121.11957 36925 ft 499 kts 141°
2026-05-04 06:59 -14.96344 121.16959 36925 ft 499 kts 141°
2026-05-04 07:01 -15.16296 121.36982 36930 ft 500 kts 141°
2026-05-04 07:02 -15.21285 121.41997 36928 ft 500 kts 141°
2026-05-04 07:02 -15.26269 121.47011 36928 ft 500 kts 141°
2026-05-04 07:03 -15.31220 121.51996 36932 ft 500 kts 141°
2026-05-04 07:03 -15.36213 121.57025 36933 ft 500 kts 141°
2026-05-04 07:04 -15.41191 121.62044 36936 ft 500 kts 141°
2026-05-04 07:04 -15.46183 121.67080 36931 ft 500 kts 141°
2026-05-04 07:05 -15.51166 121.72111 36929 ft 500 kts 141°
2026-05-04 07:05 -15.56149 121.77145 36929 ft 500 kts 141°
2026-05-04 07:06 -15.63621 121.84701 36932 ft 500 kts 141°
2026-05-04 07:07 -15.68296 121.89431 36930 ft 499 kts 141°
2026-05-04 07:09 -15.86388 122.07771 36928 ft 500 kts 141°
2026-05-04 07:09 -15.90909 122.12362 36930 ft 500 kts 141°
2026-05-04 07:10 -15.95407 122.16933 36934 ft 500 kts 141°
2026-05-04 07:12 -16.13501 122.35348 36929 ft 501 kts 141°
2026-05-04 07:12 -16.18134 122.40072 36925 ft 500 kts 141°
2026-05-04 07:13 -16.22630 122.44658 36925 ft 500 kts 141°
2026-05-04 07:13 -16.27122 122.49244 36931 ft 500 kts 141°
2026-05-04 07:14 -16.38464 122.60835 36922 ft 501 kts 141°
2026-05-04 07:15 -16.42290 122.64751 36930 ft 501 kts 141°
2026-05-04 07:15 -16.46789 122.69359 36928 ft 500 kts 141°
2026-05-04 07:16 -16.51282 122.73963 36926 ft 501 kts 141°
2026-05-04 07:16 -16.55817 122.78612 36925 ft 501 kts 142°
2026-05-04 07:17 -16.60461 122.83376 36925 ft 502 kts 142°
2026-05-04 07:17 -16.64967 122.88002 36927 ft 502 kts 142°
2026-05-04 07:18 -16.69562 122.92725 36926 ft 501 kts 142°
2026-05-04 07:18 -16.74042 122.97333 36928 ft 501 kts 142°
2026-05-04 07:19 -16.78547 123.01968 36925 ft 501 kts 142°
2026-05-04 07:19 -16.82980 123.06531 36925 ft 502 kts 142°
2026-05-04 07:20 -16.87648 123.11340 36929 ft 502 kts 142°
2026-05-04 07:20 -16.92147 123.15980 36932 ft 502 kts 142°
2026-05-04 07:22 -17.10228 123.34657 36928 ft 502 kts 142°
2026-05-04 07:23 -17.14782 123.39370 36926 ft 502 kts 142°
2026-05-04 07:23 -17.19387 123.44140 36929 ft 502 kts 142°
2026-05-04 07:24 -17.24353 123.49286 36922 ft 502 kts 142°
2026-05-04 07:24 -17.29318 123.54437 36943 ft 503 kts 143°
2026-05-04 07:26 -17.49166 123.75066 36937 ft 503 kts 143°
2026-05-04 07:27 -17.54125 123.80232 36947 ft 503 kts 143°
2026-05-04 07:27 -17.58964 123.85559 36940 ft 512 kts 136°
2026-05-04 07:28 -17.63232 123.91569 36938 ft 515 kts 133°
2026-05-04 07:28 -17.67365 123.97720 36939 ft 516 kts 132°
2026-05-04 07:29 -17.71469 124.03888 36938 ft 516 kts 132°
2026-05-04 07:29 -17.75584 124.10050 36963 ft 516 kts 133°
2026-05-04 07:30 -17.79716 124.16218 36941 ft 517 kts 133°
2026-05-04 07:30 -17.83856 124.22399 36941 ft 518 kts 133°
2026-05-04 07:31 -17.87996 124.28588 36944 ft 518 kts 133°
2026-05-04 07:33 -18.04524 124.53356 36941 ft 517 kts 133°
2026-05-04 07:33 -18.08651 124.59554 36942 ft 517 kts 133°
2026-05-04 07:34 -18.12775 124.65754 36941 ft 517 kts 133°
2026-05-04 07:34 -18.16896 124.71956 36941 ft 517 kts 133°
2026-05-04 07:35 -18.20989 124.78121 36943 ft 518 kts 133°
2026-05-04 07:35 -18.25116 124.84343 36941 ft 519 kts 133°
2026-05-04 07:36 -18.29249 124.90580 36949 ft 519 kts 133°
2026-05-04 07:38 -18.45763 125.15563 36949 ft 521 kts 133°
2026-05-04 07:38 -18.49884 125.21813 36950 ft 522 kts 133°
2026-05-04 07:39 -18.54010 125.28077 36953 ft 522 kts 133°
2026-05-04 07:39 -18.58146 125.34362 36955 ft 521 kts 133°
2026-05-04 07:40 -18.62277 125.40647 36986 ft 522 kts 133°
2026-05-04 07:40 -18.66409 125.46937 36956 ft 523 kts 133°
2026-05-04 07:41 -18.70551 125.53249 36963 ft 523 kts 133°
2026-05-04 07:41 -18.74686 125.59558 36956 ft 523 kts 133°
2026-05-04 07:42 -18.78823 125.65877 36956 ft 523 kts 133°
2026-05-04 07:42 -18.82956 125.72195 36980 ft 523 kts 133°
2026-05-04 07:43 -18.87062 125.78478 36961 ft 524 kts 133°
2026-05-04 07:43 -18.91199 125.84814 36960 ft 524 kts 133°
2026-05-04 07:44 -18.95336 125.91157 36963 ft 525 kts 133°
2026-05-04 07:44 -18.99472 125.97506 36960 ft 525 kts 133°
2026-05-04 07:45 -19.03611 126.03865 36991 ft 525 kts 133°
2026-05-04 07:45 -19.07719 126.10184 36966 ft 525 kts 133°
2026-05-04 07:46 -19.11859 126.16555 36971 ft 526 kts 133°
2026-05-04 07:46 -19.15996 126.22932 36969 ft 526 kts 133°
2026-05-04 07:47 -19.20132 126.29313 36971 ft 526 kts 133°
2026-05-04 07:49 -19.36651 126.54864 36991 ft 527 kts 133°
2026-05-04 07:49 -19.40768 126.61247 37084 ft 530 kts 133°
2026-05-04 07:50 -19.42843 126.64467 37384 ft 529 kts 133°
2026-05-04 07:50 -19.44912 126.67686 37760 ft 527 kts 133°
2026-05-04 07:50 -19.46970 126.70892 38052 ft 526 kts 133°
2026-05-04 07:50 -19.49027 126.74098 38318 ft 526 kts 133°
2026-05-04 07:51 -19.51082 126.77302 38588 ft 525 kts 133°
2026-05-04 07:51 -19.53136 126.80505 38799 ft 525 kts 133°
2026-05-04 07:51 -19.55194 126.83713 38948 ft 527 kts 133°
2026-05-04 07:51 -19.57253 126.86925 38986 ft 527 kts 133°
2026-05-04 07:52 -19.61342 126.93314 38983 ft 527 kts 133°
2026-05-04 07:52 -19.65454 126.99747 38985 ft 527 kts 132°
2026-05-04 07:54 -19.81914 127.25556 38976 ft 529 kts 132°
2026-05-04 07:55 -19.86039 127.32041 38987 ft 530 kts 132°
2026-05-04 07:55 -19.90168 127.38538 38982 ft 531 kts 132°
2026-05-04 07:56 -19.94299 127.45049 38978 ft 531 kts 132°
2026-05-04 07:56 -19.98396 127.51513 38975 ft 531 kts 131°
2026-05-04 07:57 -20.02526 127.58035 38983 ft 532 kts 131°
2026-05-04 07:57 -20.06652 127.64558 38980 ft 532 kts 131°
2026-05-04 07:58 -20.10781 127.71092 38985 ft 532 kts 131°
2026-05-04 07:58 -20.14877 127.77582 38988 ft 533 kts 131°
2026-05-04 07:59 -20.19007 127.84134 38985 ft 533 kts 131°
2026-05-04 07:59 -20.23135 127.90688 39008 ft 533 kts 131°
2026-05-04 08:00 -20.27271 127.97261 38985 ft 535 kts 131°
2026-05-04 08:02 -20.43773 128.23668 38990 ft 538 kts 130°
2026-05-04 08:02 -20.47952 128.30305 38990 ft 540 kts 130°
2026-05-04 08:03 -20.52107 128.36913 38994 ft 540 kts 130°
2026-05-04 08:03 -20.56277 128.43582 38993 ft 540 kts 130°
2026-05-04 08:04 -20.60438 128.50259 39012 ft 541 kts 130°
2026-05-04 08:04 -20.64607 128.56954 38991 ft 542 kts 130°
2026-05-04 08:05 -20.68782 128.63670 38988 ft 543 kts 130°
2026-05-04 08:05 -20.72930 128.70348 38994 ft 544 kts 129°
2026-05-04 08:06 -20.77142 128.77137 38993 ft 544 kts 129°
2026-05-04 08:06 -20.81328 128.83892 38994 ft 546 kts 129°
2026-05-04 08:08 -20.98129 129.11088 38995 ft 549 kts 129°
2026-05-04 08:11 -21.17108 129.41965 38994 ft 554 kts 128°
2026-05-04 08:11 -21.23454 129.52328 38993 ft 555 kts 128°
2026-05-04 08:12 -21.27684 129.59246 38989 ft 555 kts 128°
2026-05-04 08:12 -21.31909 129.66167 39019 ft 555 kts 128°
2026-05-04 08:13 -21.36148 129.73115 38999 ft 557 kts 128°
2026-05-04 08:13 -21.40389 129.80076 38997 ft 558 kts 128°
2026-05-04 08:14 -21.44604 129.87005 38999 ft 558 kts 128°
2026-05-04 08:16 -21.60925 130.13914 39006 ft 562 kts 128°
2026-05-04 08:16 -21.65874 130.22100 39041 ft 562 kts 128°
2026-05-04 08:17 -21.69415 130.27965 38999 ft 563 kts 127°
2026-05-04 08:17 -21.73682 130.35040 39009 ft 564 kts 127°
2026-05-04 08:19 -21.90743 130.63422 39023 ft 565 kts 127°
2026-05-04 08:20 -21.95002 130.70533 39023 ft 565 kts 127°
2026-05-04 08:20 -21.99260 130.77650 39056 ft 565 kts 127°
2026-05-04 08:21 -22.03514 130.84772 39029 ft 566 kts 127°
2026-05-04 08:21 -22.07768 130.91900 39028 ft 566 kts 127°
2026-05-04 08:22 -22.12024 130.99044 39037 ft 566 kts 127°
2026-05-04 08:24 -22.29052 131.27719 39056 ft 568 kts 127°
2026-05-04 08:24 -22.33304 131.34903 39062 ft 568 kts 127°
2026-05-04 08:25 -22.37558 131.42100 39061 ft 569 kts 127°
2026-05-04 08:25 -22.41818 131.49317 39067 ft 570 kts 127°
2026-05-04 08:27 -22.58851 131.78275 39066 ft 571 kts 126°
2026-05-04 08:28 -22.63107 131.85535 39079 ft 572 kts 126°
2026-05-04 08:28 -22.67367 131.92812 39080 ft 572 kts 126°
2026-05-04 08:29 -22.71618 132.00085 39086 ft 571 kts 126°
2026-05-04 08:31 -22.88569 132.29184 39091 ft 572 kts 126°
2026-05-04 08:33 -23.05515 132.58440 39105 ft 572 kts 125°
2026-05-04 08:35 -23.22391 132.87740 39124 ft 571 kts 125°
2026-05-04 08:35 -23.26592 132.95060 39144 ft 570 kts 124°
2026-05-04 08:37 -23.41223 133.20636 39140 ft 570 kts 124°
2026-05-04 08:38 -23.45406 133.27972 39143 ft 571 kts 124°
2026-05-04 08:38 -23.49593 133.35327 39143 ft 572 kts 124°
2026-05-04 08:40 -23.66308 133.64792 39153 ft 571 kts 124°
2026-05-04 08:41 -23.70486 133.72183 39176 ft 572 kts 124°
2026-05-04 08:41 -23.74654 133.79567 39181 ft 571 kts 123°
2026-05-04 08:42 -23.78859 133.86917 39177 ft 570 kts 129°
2026-05-04 08:42 -23.83760 133.93707 39211 ft 569 kts 132°
2026-05-04 08:43 -23.88791 134.00363 39184 ft 567 kts 133°
2026-05-04 08:43 -23.93854 134.06981 39165 ft 567 kts 133°
2026-05-04 08:44 -23.98912 134.13614 39194 ft 568 kts 133°
2026-05-04 08:46 -24.19046 134.40235 39180 ft 566 kts 132°
2026-05-04 08:46 -24.24059 134.46885 39174 ft 567 kts 132°
2026-05-04 08:47 -24.29081 134.53561 39172 ft 568 kts 132°
2026-05-04 08:47 -24.34095 134.60235 39169 ft 566 kts 132°
2026-05-04 08:48 -24.39089 134.66892 39172 ft 566 kts 132°
2026-05-04 08:48 -24.44101 134.73578 39172 ft 567 kts 132°
2026-05-04 08:49 -24.49098 134.80253 39175 ft 565 kts 131°
2026-05-04 08:50 -24.66466 135.03532 39174 ft 561 kts 131°
2026-05-04 08:51 -24.71418 135.10187 39171 ft 563 kts 131°
2026-05-04 08:51 -24.76341 135.16815 39175 ft 563 kts 131°
2026-05-04 08:52 -24.81297 135.23498 39178 ft 563 kts 131°
2026-05-04 08:52 -24.86250 135.30185 39182 ft 563 kts 131°
2026-05-04 08:54 -25.06021 135.56972 39179 ft 559 kts 131°
2026-05-04 08:55 -25.10887 135.63587 39175 ft 560 kts 131°
2026-05-04 08:55 -25.15791 135.70262 39182 ft 560 kts 131°
2026-05-04 09:01 -25.66539 136.39909 39178 ft 565 kts 130°
2026-05-04 09:01 -25.71451 136.46706 39177 ft 565 kts 130°
2026-05-04 09:02 -25.76362 136.53511 39176 ft 565 kts 130°
2026-05-04 09:02 -25.81270 136.60325 39176 ft 565 kts 130°
2026-05-04 09:03 -25.86182 136.67151 39176 ft 566 kts 130°
2026-05-04 09:03 -25.91082 136.73974 39181 ft 563 kts 130°
2026-05-04 09:04 -25.95948 136.80761 39181 ft 561 kts 130°
2026-05-04 09:04 -26.00813 136.87556 39181 ft 563 kts 130°
2026-05-04 09:05 -26.05683 136.94369 39181 ft 563 kts 130°
2026-05-04 09:05 -26.10554 137.01192 39181 ft 563 kts 130°
2026-05-04 09:06 -26.15425 137.08027 39184 ft 564 kts 130°
2026-05-04 09:08 -26.34866 137.35406 39209 ft 564 kts 130°
2026-05-04 09:08 -26.39715 137.42261 39184 ft 562 kts 129°
2026-05-04 09:09 -26.44550 137.49106 39187 ft 562 kts 129°
2026-05-04 09:09 -26.49387 137.55964 39187 ft 562 kts 129°
2026-05-04 09:10 -26.54212 137.62816 39186 ft 562 kts 129°
2026-05-04 09:10 -26.59045 137.69690 39188 ft 562 kts 129°
2026-05-04 09:11 -26.63875 137.76569 39189 ft 562 kts 129°
2026-05-04 09:11 -26.68701 137.83455 39189 ft 563 kts 129°
2026-05-04 09:12 -26.73532 137.90358 39188 ft 564 kts 129°
2026-05-04 09:14 -26.92774 138.17961 39190 ft 559 kts 129°
2026-05-04 09:14 -26.97550 138.24839 39192 ft 560 kts 129°
2026-05-04 09:15 -27.02332 138.31736 39192 ft 561 kts 129°
2026-05-04 09:15 -27.07115 138.38646 39192 ft 561 kts 129°
2026-05-04 09:17 -27.28665 138.69916 39191 ft 564 kts 129°
2026-05-04 09:18 -27.33448 138.76886 39193 ft 561 kts 129°
2026-05-04 09:18 -27.38207 138.83832 39192 ft 559 kts 129°
2026-05-04 09:19 -27.42956 138.90774 39189 ft 561 kts 129°
2026-05-04 09:19 -27.47719 138.97745 39189 ft 562 kts 129°
2026-05-04 09:20 -27.52479 139.04725 39189 ft 562 kts 129°
2026-05-04 09:20 -27.57241 139.11720 39190 ft 562 kts 128°
2026-05-04 09:21 -27.61971 139.18680 39193 ft 563 kts 128°
2026-05-04 09:21 -27.66730 139.25694 39189 ft 563 kts 128°
2026-05-04 09:22 -27.71487 139.32715 39183 ft 563 kts 128°
2026-05-04 09:22 -27.76237 139.39738 39185 ft 563 kts 128°
2026-05-04 09:23 -27.80979 139.46760 39180 ft 560 kts 128°
2026-05-04 09:23 -27.85697 139.53758 39179 ft 559 kts 128°
2026-05-04 09:25 -28.04563 139.81853 39185 ft 562 kts 128°
2026-05-04 09:26 -28.09288 139.88917 39183 ft 563 kts 128°
2026-05-04 09:26 -28.14009 139.95989 39181 ft 563 kts 128°
2026-05-04 09:27 -28.18726 140.03066 39180 ft 563 kts 128°
2026-05-04 09:27 -28.23445 140.10157 39182 ft 563 kts 128°
2026-05-04 09:28 -28.28150 140.17241 39183 ft 561 kts 128°
2026-05-04 09:28 -28.32839 140.24310 39180 ft 561 kts 128°
2026-05-04 09:29 -28.37529 140.31392 39175 ft 561 kts 128°
2026-05-04 09:29 -28.42214 140.38480 39176 ft 561 kts 128°
2026-05-04 09:30 -28.46901 140.45583 39183 ft 562 kts 128°
2026-05-04 09:30 -28.51584 140.52691 39181 ft 562 kts 128°
2026-05-04 09:31 -28.56266 140.59810 39183 ft 562 kts 128°
2026-05-04 09:31 -28.60940 140.66929 39178 ft 562 kts 128°
2026-05-04 09:32 -28.65620 140.74069 39176 ft 563 kts 128°
2026-05-04 09:34 -28.84278 141.02655 39185 ft 562 kts 128°
2026-05-04 09:34 -28.88936 141.09820 39180 ft 562 kts 128°
2026-05-04 09:35 -28.93626 141.17049 39180 ft 563 kts 128°
2026-05-04 09:35 -28.98257 141.24198 39177 ft 564 kts 127°
2026-05-04 09:37 -29.16908 141.53117 39176 ft 566 kts 127°
2026-05-04 09:38 -29.21578 141.60389 39179 ft 566 kts 127°
2026-05-04 09:38 -29.26219 141.67629 39176 ft 563 kts 127°
2026-05-04 09:39 -29.30845 141.74859 39177 ft 562 kts 127°
2026-05-04 09:39 -29.35463 141.82087 39167 ft 562 kts 127°
2026-05-04 09:40 -29.40083 141.89330 39174 ft 563 kts 127°
2026-05-04 09:40 -29.44698 141.96582 39176 ft 563 kts 127°
2026-05-04 09:42 -29.63135 142.25674 39171 ft 564 kts 127°
2026-05-04 09:43 -29.67742 142.32975 39168 ft 565 kts 127°
2026-05-04 09:43 -29.72350 142.40294 39170 ft 563 kts 127°
2026-05-04 09:44 -29.76932 142.47582 39167 ft 562 kts 127°
2026-05-04 09:46 -29.94759 142.75379 39165 ft 563 kts 131°
2026-05-04 09:46 -29.99744 142.82341 39163 ft 564 kts 131°
2026-05-04 09:47 -30.04732 142.89339 39162 ft 564 kts 131°
2026-05-04 09:49 -30.24507 143.17571 39162 ft 566 kts 131°
2026-05-04 09:51 -30.41784 143.42422 39161 ft 566 kts 131°
2026-05-04 09:51 -30.46709 143.49533 39160 ft 566 kts 131°
2026-05-04 09:52 -30.51633 143.56656 39154 ft 566 kts 130°
2026-05-04 09:52 -30.56559 143.63794 39166 ft 566 kts 130°
2026-05-04 09:53 -30.61466 143.70918 39154 ft 564 kts 130°
2026-05-04 09:53 -30.66358 143.78035 39150 ft 564 kts 130°
2026-05-04 09:54 -30.71252 143.85163 39154 ft 565 kts 130°
2026-05-04 09:54 -30.76148 143.92310 39151 ft 565 kts 130°
2026-05-04 09:55 -30.81038 143.99461 39146 ft 565 kts 130°
2026-05-04 09:55 -30.85926 144.06622 39149 ft 565 kts 130°
2026-05-04 09:56 -30.90811 144.13793 39143 ft 565 kts 130°
2026-05-04 09:56 -30.95690 144.20967 39140 ft 565 kts 130°
2026-05-04 09:57 -31.00565 144.28147 39155 ft 565 kts 130°
2026-05-04 09:57 -31.05435 144.35335 39144 ft 564 kts 130°
2026-05-04 09:58 -31.10291 144.42515 39144 ft 564 kts 130°
2026-05-04 09:58 -31.15141 144.49698 39137 ft 563 kts 130°
2026-05-04 10:00 -31.34534 144.78556 39135 ft 565 kts 130°
2026-05-04 10:04 -31.68252 145.29250 38794 ft 564 kts 130°
2026-05-04 10:04 -31.70658 145.32893 38526 ft 565 kts 130°
2026-05-04 10:04 -31.73068 145.36545 38256 ft 566 kts 130°
2026-05-04 10:04 -31.75479 145.40203 37988 ft 566 kts 130°
2026-05-04 10:05 -31.77888 145.43861 37721 ft 566 kts 130°
2026-05-04 10:05 -31.80296 145.47520 37460 ft 566 kts 130°
2026-05-04 10:05 -31.82704 145.51184 37201 ft 566 kts 130°
2026-05-04 10:05 -31.85112 145.54850 36976 ft 566 kts 130°
2026-05-04 10:06 -31.87515 145.58511 36722 ft 564 kts 129°
2026-05-04 10:06 -31.89908 145.62162 36476 ft 563 kts 129°
2026-05-04 10:06 -31.92294 145.65807 36245 ft 562 kts 129°
2026-05-04 10:08 -32.06608 145.87745 34816 ft 564 kts 129°
2026-05-04 10:08 -32.08965 145.91368 34588 ft 564 kts 129°
2026-05-04 10:08 -32.11352 145.95040 34355 ft 564 kts 129°
2026-05-04 10:08 -32.13769 145.98764 34114 ft 564 kts 129°
2026-05-04 10:09 -32.16150 146.02436 33857 ft 564 kts 129°
2026-05-04 10:09 -32.18536 146.06119 33599 ft 564 kts 129°
2026-05-04 10:09 -32.20920 146.09801 33331 ft 565 kts 129°
2026-05-04 10:09 -32.23275 146.13442 33071 ft 565 kts 129°
2026-05-04 10:10 -32.25657 146.17131 32825 ft 565 kts 129°
2026-05-04 10:10 -32.28034 146.20817 32582 ft 564 kts 129°
2026-05-04 10:10 -32.30415 146.24510 32324 ft 564 kts 128°
2026-05-04 10:10 -32.32818 146.28241 32079 ft 563 kts 128°
2026-05-04 10:11 -32.35192 146.31930 31827 ft 563 kts 128°
2026-05-04 10:11 -32.37530 146.35567 31585 ft 563 kts 128°
2026-05-04 10:11 -32.39933 146.39308 31332 ft 564 kts 128°
2026-05-04 10:11 -32.42272 146.42954 31099 ft 564 kts 128°
2026-05-04 10:12 -32.44640 146.46649 30846 ft 564 kts 128°
2026-05-04 10:12 -32.47012 146.50343 30608 ft 564 kts 128°
2026-05-04 10:12 -32.49380 146.54042 30377 ft 563 kts 128°
2026-05-04 10:12 -32.51743 146.57742 30128 ft 562 kts 128°
2026-05-04 10:13 -32.54091 146.61424 29852 ft 560 kts 128°
2026-05-04 10:13 -32.56439 146.65108 29651 ft 558 kts 128°
2026-05-04 10:13 -32.58782 146.68788 29883 ft 560 kts 128°
2026-05-04 10:13 -32.61118 146.72459 30106 ft 554 kts 128°
2026-05-04 10:14 -32.65719 146.79699 30122 ft 548 kts 128°
2026-05-04 10:16 -32.84042 147.08661 30121 ft 549 kts 127°
2026-05-04 10:16 -32.88614 147.15924 30122 ft 548 kts 127°
2026-05-04 10:17 -32.93181 147.23192 30121 ft 548 kts 127°
2026-05-04 10:19 -33.11376 147.52291 30121 ft 549 kts 127°
2026-05-04 10:19 -33.15953 147.59648 30118 ft 550 kts 127°
2026-05-04 10:20 -33.20481 147.66940 30115 ft 550 kts 127°
2026-05-04 10:20 -33.24996 147.74226 30142 ft 529 kts 127°
2026-05-04 10:21 -33.29362 147.81286 30125 ft 539 kts 127°
2026-05-04 10:21 -33.33877 147.88596 30122 ft 550 kts 127°
2026-05-04 10:22 -33.41284 147.99040 30125 ft 548 kts 133°
2026-05-04 10:23 -33.46440 148.05760 30127 ft 548 kts 134°
2026-05-04 10:25 -33.66488 148.31834 30125 ft 549 kts 134°
2026-05-04 10:25 -33.71643 148.38584 30127 ft 549 kts 133°
2026-05-04 10:26 -33.76813 148.45364 30004 ft 554 kts 133°
2026-05-04 10:26 -33.82054 148.52245 30121 ft 555 kts 133°
2026-05-04 10:27 -33.87210 148.59037 30124 ft 547 kts 133°
2026-05-04 10:27 -33.92340 148.65805 30119 ft 548 kts 133°
2026-05-04 10:28 -33.97474 148.72592 30129 ft 549 kts 133°
2026-05-04 10:29 -34.07763 148.86229 30116 ft 546 kts 133°
2026-05-04 10:29 -34.12875 148.93006 30117 ft 546 kts 136°
2026-05-04 10:29 -34.15778 148.95818 30118 ft 540 kts 152°
2026-05-04 10:30 -34.19147 148.97714 30119 ft 531 kts 167°
2026-05-04 10:30 -34.22719 148.98547 30117 ft 517 kts 183°
2026-05-04 10:30 -34.26248 148.98311 30116 ft 502 kts 197°
2026-05-04 10:31 -34.33005 148.96469 30120 ft 497 kts 202°
2026-05-04 10:32 -34.56553 148.89461 30112 ft 499 kts 202°
2026-05-04 10:33 -34.63295 148.87445 30131 ft 499 kts 202°
2026-05-04 10:33 -34.70035 148.85425 30107 ft 499 kts 202°
2026-05-04 10:34 -34.76862 148.83659 30102 ft 509 kts 194°
2026-05-04 10:34 -34.84035 148.84138 30115 ft 530 kts 172°
2026-05-04 10:35 -34.87569 148.85625 29877 ft 547 kts 158°
2026-05-04 10:35 -34.90851 148.88041 29588 ft 555 kts 144°
2026-05-04 10:35 -34.93658 148.91274 29322 ft 556 kts 130°
2026-05-04 10:35 -34.95841 148.95129 29036 ft 551 kts 116°
2026-05-04 10:36 -34.97316 148.99395 28766 ft 543 kts 103°
2026-05-04 10:36 -34.98052 149.03864 28517 ft 532 kts 90°
2026-05-04 10:36 -34.98065 149.08249 28238 ft 518 kts 78°
2026-05-04 10:36 -34.97397 149.12551 27966 ft 502 kts 66°
2026-05-04 10:37 -34.96161 149.16401 27701 ft 488 kts 55°
2026-05-04 10:37 -34.94470 149.19919 27449 ft 477 kts 48°
2026-05-04 10:37 -34.92613 149.23258 27177 ft 474 kts 47°
2026-05-04 10:37 -34.90736 149.26547 26922 ft 472 kts 46°
2026-05-04 10:39 -34.79263 149.45665 25452 ft 459 kts 45°
2026-05-04 10:39 -34.77396 149.48738 25210 ft 458 kts 45°
2026-05-04 10:39 -34.75504 149.51852 25106 ft 458 kts 45°
2026-05-04 10:40 -34.73612 149.54963 25102 ft 457 kts 45°
2026-05-04 10:40 -34.71699 149.58111 25102 ft 457 kts 45°
2026-05-04 10:40 -34.69836 149.61174 25084 ft 456 kts 45°
2026-05-04 10:40 -34.67948 149.64275 25101 ft 456 kts 45°
2026-05-04 10:41 -34.66064 149.67369 25099 ft 456 kts 45°
2026-05-04 10:41 -34.64178 149.70465 25099 ft 456 kts 45°
2026-05-04 10:41 -34.62288 149.73563 25093 ft 457 kts 45°
2026-05-04 10:41 -34.60394 149.76664 25094 ft 457 kts 45°
2026-05-04 10:42 -34.58500 149.79762 25094 ft 458 kts 45°
2026-05-04 10:42 -34.56598 149.82871 25094 ft 458 kts 45°
2026-05-04 10:42 -34.54714 149.85950 25088 ft 458 kts 45°
2026-05-04 10:42 -34.52815 149.89049 25071 ft 458 kts 45°
2026-05-04 10:43 -34.50931 149.92160 25086 ft 460 kts 48°
2026-05-04 10:44 -34.40143 150.16012 20799 ft 439 kts 55°
2026-05-04 10:45 -34.38713 150.19226 20159 ft 429 kts 55°
2026-05-04 10:45 -34.37315 150.22368 19543 ft 420 kts 55°
2026-05-04 10:45 -34.35936 150.25460 18938 ft 414 kts 55°
2026-05-04 10:45 -34.34580 150.28496 18336 ft 408 kts 55°
2026-05-04 10:46 -34.33242 150.31494 17680 ft 401 kts 55°
2026-05-04 10:46 -34.31925 150.34441 17085 ft 394 kts 55°
2026-05-04 10:46 -34.30634 150.37324 16520 ft 387 kts 55°
2026-05-04 10:46 -34.29361 150.40164 15967 ft 381 kts 55°
2026-05-04 10:47 -34.28111 150.42958 15384 ft 375 kts 55°
2026-05-04 10:47 -34.26877 150.45718 14832 ft 370 kts 55°
2026-05-04 10:47 -34.25661 150.48441 14266 ft 366 kts 56°
2026-05-04 10:47 -34.24461 150.51123 13706 ft 360 kts 56°
2026-05-04 10:49 -34.16340 150.69228 10440 ft 321 kts 56°
2026-05-04 10:49 -34.15309 150.71531 10336 ft 304 kts 56°
2026-05-04 10:50 -34.14317 150.73738 10046 ft 296 kts 56°
2026-05-04 10:51 -34.07576 150.88671 6818 ft 285 kts 56°
2026-05-04 10:52 -34.06642 150.90745 6359 ft 285 kts 56°
2026-05-04 10:52 -34.05769 150.92927 6047 ft 289 kts 68°
2026-05-04 10:52 -34.05618 150.95361 6013 ft 297 kts 96°
2026-05-04 10:54 -34.14730 151.08993 6010 ft 301 kts 133°
2026-05-04 10:54 -34.16150 151.10856 6012 ft 301 kts 133°
2026-05-04 10:56 -34.28706 151.18658 3987 ft 287 kts 163°
2026-05-04 10:56 -34.30577 151.19458 3582 ft 283 kts 161°
2026-05-04 10:56 -34.32266 151.20659 3163 ft 283 kts 136°
2026-05-04 10:57 -34.33322 151.22627 3006 ft 280 kts 107°
2026-05-04 10:57 -34.33528 151.24919 2995 ft 273 kts 78°
2026-05-04 10:57 -34.32875 151.27008 2997 ft 263 kts 51°
2026-05-04 10:57 -34.31545 151.28434 2994 ft 254 kts 24°
2026-05-04 10:58 -34.29911 151.29202 2995 ft 251 kts 13°
2026-05-04 10:58 -34.28200 151.29410 2997 ft 247 kts 349°
2026-05-04 10:58 -34.26585 151.28762 3059 ft 245 kts 334°
2026-05-04 10:58 -34.25048 151.27855 3065 ft 246 kts 331°
2026-05-04 10:59 -34.23556 151.26848 3066 ft 246 kts 329°
2026-05-04 10:59 -34.22075 151.25812 3068 ft 246 kts 329°
2026-05-04 10:59 -34.20600 151.24778 3071 ft 245 kts 329°
2026-05-04 10:59 -34.19039 151.23927 3074 ft 247 kts 340°
2026-05-04 11:00 -34.17364 151.23449 3071 ft 247 kts 347°
2026-05-04 11:01 -34.06029 151.20567 1928 ft 209 kts 346°
2026-05-04 11:02 -34.04669 151.20212 1671 ft 193 kts 347°
2026-05-04 11:02 -34.03395 151.19881 1415 ft 181 kts 346°
2026-05-04 11:05 -33.94454 151.17707 28 ft 22 kts 19°
2026-05-04 11:06 -33.94395 151.17730 27 ft 0 kts 18°
2026-05-04 11:08 -33.94098 151.17663 29 ft 3 kts 345°
2026-05-04 11:10 -33.94067 151.17605 27 ft 6 kts 219°
2026-05-04 11:12 -33.94068 151.17603 27 ft 0 kts 220°
2026-05-04 11:12 -33.94089 151.17574 28 ft 23 kts 230°
2026-05-04 11:12 -33.94149 151.17358 29 ft 24 kts 259°
2026-05-04 11:13 -33.94078 151.17252 28 ft 19 kts 347°
2026-05-04 11:13 -33.93933 151.17213 22 ft 24 kts 347°
2026-05-04 11:13 -33.93810 151.17181 19 ft 9 kts 348°
2026-05-04 11:13 -33.93741 151.17164 23 ft 11 kts 348°
2026-05-04 11:14 -33.93666 151.17144 25 ft 11 kts 348°
2026-05-04 11:14 -33.93578 151.17122 27 ft 15 kts 348°
2026-05-04 11:14 -33.93508 151.17041 30 ft 15 kts 272°
2026-05-04 11:16 -33.93620 151.17013 27 ft 0 kts 167°